| time (UTC) | temp F | wind direction | speed MPH | gust MPH | rain 1hr in | rain 24hr in | rain mn in | humidity % | barometer mb |
| 20260508025342 | 59 | 0 | 0.0 | 0.0 | 0.00 | 0.00 | 1.09 | 85 | 1016.3 |
| 20260508024836 | 59 | 0 | 0.0 | 0.0 | 0.00 | 0.00 | 1.09 | 84 | 1016.1 |
| 20260508024340 | 59 | 0 | 0.0 | 0.0 | 0.00 | 0.00 | 1.09 | 84 | 1016.0 |
| 20260508023935 | 59 | 0 | 0.0 | 1.0 | 0.00 | 0.00 | 1.09 | 84 | 1016.1 |
| 20260508023440 | 59 | 0 | 0.0 | 1.0 | 0.00 | 0.00 | 1.09 | 84 | 1016.1 |
| 20260508022939 | 59 | 0 | 0.0 | 1.0 | 0.00 | 0.00 | 1.09 | 84 | 1016.0 |
| 20260508022441 | 59 | 0 | 0.0 | 0.0 | 0.00 | 0.00 | 1.09 | 84 | 1016.0 |
| 20260508021941 | 59 | 0 | 0.0 | 0.0 | 0.00 | 0.00 | 1.09 | 84 | 1016.1 |
| 20260508021440 | 59 | 0 | 0.0 | 0.0 | 0.00 | 0.00 | 1.09 | 84 | 1016.0 |
| 20260508020944 | 59 | 0 | 0.0 | 0.0 | 0.00 | 0.00 | 1.09 | 84 | 1015.8 |
| 20260508020435 | 59 | 0 | 0.0 | 0.0 | 0.00 | 0.00 | 1.09 | 84 | 1015.8 |
| 20260508015939 | 60 | 0 | 0.0 | 0.0 | 0.00 | 0.00 | 1.09 | 83 | 1015.8 |
| 20260508015438 | 60 | 0 | 0.0 | 0.0 | 0.00 | 0.00 | 1.09 | 83 | 1015.8 |
| 20260508014939 | 60 | 0 | 0.0 | 0.0 | 0.00 | 0.00 | 1.09 | 82 | 1015.7 |
| 20260508014439 | 60 | 0 | 0.0 | 1.0 | 0.00 | 0.00 | 1.09 | 82 | 1015.7 |
| 20260508013941 | 61 | 0 | 0.0 | 1.0 | 0.00 | 0.00 | 1.09 | 82 | 1015.6 |
| 20260508013441 | 61 | 0 | 0.0 | 1.0 | 0.00 | 0.00 | 1.09 | 82 | 1015.6 |
| 20260508012942 | 61 | 0 | 0.0 | 1.0 | 0.00 | 0.00 | 1.09 | 81 | 1015.6 |
| 20260508012437 | 61 | 0 | 0.0 | 0.0 | 0.00 | 0.00 | 1.09 | 82 | 1015.6 |
| 20260508011939 | 61 | 0 | 0.0 | 0.0 | 0.00 | 0.00 | 1.09 | 81 | 1015.5 |
| 20260508011435 | 61 | 0 | 0.0 | 0.0 | 0.00 | 0.00 | 1.09 | 81 | 1015.6 |
| 20260508010938 | 61 | 0 | 0.0 | 0.0 | 0.00 | 0.00 | 1.09 | 80 | 1015.5 |
| 20260508010441 | 62 | 0 | 0.0 | 0.0 | 0.00 | 0.00 | 1.09 | 80 | 1015.5 |
| 20260508005939 | 62 | 0 | 0.0 | 0.0 | 0.00 | 0.00 | 1.09 | 80 | 1015.5 |
| 20260508005442 | 62 | 0 | 0.0 | 0.0 | 0.00 | 0.00 | 1.09 | 79 | 1015.3 |
| 20260508004941 | 62 | 0 | 0.0 | 1.0 | 0.00 | 0.00 | 1.09 | 79 | 1015.3 |
| 20260508004437 | 62 | 0 | 0.0 | 1.0 | 0.00 | 0.00 | 1.09 | 79 | 1015.1 |
| 20260508003940 | 62 | 0 | 0.0 | 2.0 | 0.00 | 0.00 | 1.09 | 78 | 1015.2 |
| 20260508003437 | 63 | 0 | 0.0 | 2.0 | 0.00 | 0.00 | 1.09 | 78 | 1015.0 |
| 20260508002943 | 63 | 0 | 0.0 | 0.0 | 0.00 | 0.00 | 1.09 | 78 | 1015.2 |
| 20260508002441 | 63 | 0 | 0.0 | 0.0 | 0.00 | 0.00 | 1.09 | 78 | 1015.0 |
| 20260508001939 | 63 | 0 | 0.0 | 0.0 | 0.00 | 0.00 | 1.09 | 77 | 1015.1 |
| 20260508001442 | 63 | 0 | 0.0 | 1.0 | 0.00 | 0.00 | 1.09 | 77 | 1015.0 |
| 20260508000941 | 64 | 0 | 0.0 | 1.0 | 0.00 | 0.00 | 1.09 | 77 | 1014.8 |
| 20260508000437 | 64 | 0 | 0.0 | 1.0 | 0.00 | 0.00 | 1.09 | 76 | 1014.9 |
| 20260507235937 | 64 | 0 | 0.0 | 1.0 | 0.00 | 0.00 | 1.09 | 76 | 1014.8 |
| 20260507235439 | 64 | 0 | 0.0 | 1.0 | 0.00 | 0.00 | 1.09 | 76 | 1014.6 |
| 20260507234936 | 65 | 0 | 0.0 | 6.0 | 0.00 | 0.00 | 1.09 | 75 | 1014.9 |
| 20260507234436 | 65 | 0 | 0.0 | 6.0 | 0.00 | 0.00 | 1.09 | 75 | 1014.7 |
| 20260507233939 | 65 | 198 | 1.0 | 6.0 | 0.00 | 0.00 | 1.09 | 74 | 1014.6 |
| 20260507233441 | 66 | 0 | 0.0 | 3.0 | 0.00 | 0.00 | 1.09 | 74 | 1014.6 |
| 20260507232937 | 66 | 0 | 0.0 | 6.0 | 0.00 | 0.00 | 1.09 | 74 | 1014.4 |
| 20260507232442 | 66 | 165 | 1.0 | 6.0 | 0.00 | 0.00 | 1.09 | 75 | 1014.5 |
| 20260507231936 | 66 | 0 | 0.0 | 4.0 | 0.00 | 0.00 | 1.09 | 74 | 1014.4 |
| 20260507231440 | 66 | 146 | 2.0 | 5.0 | 0.00 | 0.00 | 1.09 | 74 | 1014.4 |
| 20260507230937 | 66 | 146 | 2.0 | 5.0 | 0.00 | 0.00 | 1.09 | 74 | 1014.3 |
| 20260507230436 | 66 | 0 | 0.0 | 5.0 | 0.00 | 0.00 | 1.09 | 73 | 1014.4 |
| 20260507225941 | 66 | 150 | 1.0 | 3.0 | 0.00 | 0.00 | 1.09 | 73 | 1014.2 |
| 20260507225441 | 67 | 167 | 0.0 | 3.0 | 0.00 | 0.00 | 1.09 | 73 | 1014.3 |
| 20260507224941 | 67 | 167 | 2.0 | 3.0 | 0.00 | 0.00 | 1.09 | 73 | 1014.2 |
| 20260507224439 | 67 | 115 | 3.0 | 3.0 | 0.00 | 0.00 | 1.09 | 73 | 1014.1 |
| 20260507223937 | 67 | 175 | 2.0 | 4.0 | 0.00 | 0.00 | 1.09 | 74 | 1014.1 |
| 20260507223443 | 67 | 163 | 0.0 | 5.0 | 0.00 | 0.00 | 1.09 | 73 | 1014.1 |
| 20260507222936 | 67 | 172 | 1.0 | 5.0 | 0.00 | 0.00 | 1.09 | 74 | 1014.1 |
| 20260507222440 | 67 | 174 | 2.0 | 2.0 | 0.00 | 0.00 | 1.09 | 75 | 1013.9 |
| 20260507221941 | 68 | 174 | 1.0 | 3.0 | 0.00 | 0.00 | 1.09 | 74 | 1014.0 |
| 20260507221439 | 68 | 183 | 0.0 | 4.0 | 0.00 | 0.00 | 1.09 | 74 | 1014.0 |
| 20260507220939 | 68 | 0 | 0.0 | 4.0 | 0.00 | 0.00 | 1.09 | 75 | 1013.9 |
| 20260507220435 | 68 | 160 | 1.0 | 4.0 | 0.00 | 0.00 | 1.09 | 74 | 1013.7 |
| 20260507215942 | 68 | 196 | 1.0 | 4.0 | 0.00 | 0.00 | 1.09 | 74 | 1013.7 |
| 20260507215440 | 68 | 0 | 0.0 | 4.0 | 0.00 | 0.00 | 1.09 | 74 | 1013.6 |
| 20260507214942 | 68 | 188 | 2.0 | 4.0 | 0.00 | 0.00 | 1.09 | 75 | 1013.6 |
| 20260507214443 | 68 | 185 | 1.0 | 5.0 | 0.00 | 0.00 | 1.09 | 74 | 1013.5 |
| 20260507213938 | 68 | 190 | 0.0 | 5.0 | 0.00 | 0.00 | 1.09 | 74 | 1014.0 |
| 20260507213440 | 68 | 154 | 0.0 | 3.0 | 0.00 | 0.00 | 1.09 | 74 | 1013.7 |
| 20260507212941 | 68 | 155 | 2.0 | 3.0 | 0.00 | 0.00 | 1.09 | 75 | 1013.6 |
| 20260507212436 | 68 | 172 | 1.0 | 3.0 | 0.00 | 0.00 | 1.09 | 75 | 1013.5 |
| 20260507211942 | 68 | 148 | 2.0 | 3.0 | 0.00 | 0.00 | 1.09 | 74 | 1013.5 |
| 20260507211439 | 67 | 171 | 1.0 | 4.0 | 0.00 | 0.00 | 1.09 | 75 | 1013.5 |
| 20260507210941 | 68 | 148 | 2.0 | 4.0 | 0.00 | 0.00 | 1.09 | 77 | 1013.5 |
| 20260507210439 | 68 | 169 | 2.0 | 3.0 | 0.00 | 0.00 | 1.09 | 75 | 1013.4 |
| 20260507205939 | 68 | 192 | 0.0 | 3.0 | 0.00 | 0.00 | 1.09 | 75 | 1013.5 |
| 20260507205439 | 68 | 156 | 2.0 | 4.0 | 0.00 | 0.00 | 1.09 | 75 | 1013.6 |
| 20260507204941 | 68 | 188 | 1.0 | 4.0 | 0.00 | 0.00 | 1.09 | 76 | 1013.4 |
| 20260507204438 | 68 | 174 | 1.0 | 4.0 | 0.00 | 0.00 | 1.09 | 76 | 1013.5 |
| 20260507203942 | 68 | 158 | 2.0 | 4.0 | 0.00 | 0.00 | 1.09 | 75 | 1013.4 |
| 20260507203439 | 68 | 182 | 1.0 | 4.0 | 0.00 | 0.00 | 1.09 | 76 | 1013.5 |
| 20260507202939 | 68 | 155 | 1.0 | 4.0 | 0.00 | 0.00 | 1.09 | 76 | 1013.3 |
| 20260507202441 | 69 | 179 | 2.0 | 4.0 | 0.00 | 0.00 | 1.09 | 76 | 1013.4 |
| 20260507201939 | 69 | 150 | 1.0 | 4.0 | 0.00 | 0.00 | 1.09 | 75 | 1013.4 |
| 20260507201441 | 69 | 155 | 1.0 | 4.0 | 0.00 | 0.00 | 1.09 | 75 | 1013.4 |
| 20260507200940 | 69 | 182 | 1.0 | 4.0 | 0.00 | 0.00 | 1.09 | 75 | 1013.5 |
| 20260507200441 | 69 | 143 | 3.0 | 3.0 | 0.00 | 0.00 | 1.09 | 74 | 1013.3 |
| 20260507195937 | 70 | 158 | 2.0 | 4.0 | 0.00 | 0.00 | 1.09 | 74 | 1013.3 |
| 20260507195443 | 70 | 174 | 1.0 | 4.0 | 0.00 | 0.00 | 1.09 | 75 | 1013.3 |
| 20260507194939 | 70 | 158 | 1.0 | 5.0 | 0.00 | 0.00 | 1.09 | 76 | 1013.3 |
| 20260507194443 | 70 | 169 | 1.0 | 5.0 | 0.00 | 0.00 | 1.09 | 75 | 1013.5 |
| 20260507193941 | 70 | 99 | 5.0 | 3.0 | 0.00 | 0.00 | 1.09 | 76 | 1013.4 |
| 20260507193440 | 70 | 137 | 2.0 | 10.0 | 0.00 | 0.00 | 1.09 | 77 | 1013.3 |
| 20260507192944 | 70 | 158 | 2.0 | 10.0 | 0.00 | 0.00 | 1.09 | 76 | 1013.3 |
| 20260507192440 | 70 | 351 | 2.0 | 10.0 | 0.00 | 0.00 | 1.09 | 77 | 1013.2 |
| 20260507191938 | 70 | 174 | 1.0 | 3.0 | 0.00 | 0.00 | 1.09 | 77 | 1013.2 |
| 20260507191438 | 70 | 198 | 1.0 | 3.0 | 0.00 | 0.00 | 1.09 | 78 | 1013.4 |
| 20260507190941 | 70 | 160 | 0.0 | 4.0 | 0.00 | 0.00 | 1.09 | 78 | 1013.4 |
| 20260507190442 | 70 | 167 | 1.0 | 5.0 | 0.00 | 0.00 | 1.09 | 80 | 1013.6 |
| 20260507185939 | 69 | 0 | 0.0 | 5.0 | 0.00 | 0.00 | 1.09 | 80 | 1013.7 |
| 20260507185439 | 69 | 183 | 1.0 | 6.0 | 0.00 | 0.00 | 1.09 | 80 | 1013.6 |
| 20260507184939 | 69 | 162 | 1.0 | 6.0 | 0.00 | 0.00 | 1.09 | 80 | 1013.8 |
| 20260507184440 | 69 | 36 | 5.0 | 5.0 | 0.00 | 0.00 | 1.09 | 79 | 1013.7 |
| 20260507183942 | 70 | 0 | 0.0 | 3.0 | 0.00 | 0.00 | 1.09 | 80 | 1013.7 |
| 20260507183440 | 70 | 0 | 0.0 | 4.0 | 0.00 | 0.00 | 1.09 | 81 | 1013.6 |
| 20260507182944 | 70 | 155 | 1.0 | 4.0 | 0.00 | 0.00 | 1.09 | 80 | 1013.5 |
| 20260507182437 | 70 | 141 | 2.0 | 4.0 | 0.00 | 0.00 | 1.09 | 81 | 1013.6 |
| 20260507181942 | 70 | 189 | 1.0 | 6.0 | 0.00 | 0.00 | 1.09 | 82 | 1013.6 |
| 20260507181441 | 69 | 167 | 1.0 | 6.0 | 0.00 | 0.00 | 1.09 | 82 | 1013.5 |
| 20260507180938 | 69 | 139 | 3.0 | 3.0 | 0.00 | 0.00 | 1.09 | 82 | 1013.6 |
| 20260507180439 | 69 | 0 | 0.0 | 3.0 | 0.00 | 0.00 | 1.09 | 83 | 1013.5 |
| 20260507175939 | 69 | 137 | 3.0 | 4.0 | 0.00 | 0.00 | 1.09 | 84 | 1013.6 |
| 20260507175437 | 69 | 163 | 1.0 | 4.0 | 0.00 | 0.00 | 1.09 | 83 | 1013.5 |
| 20260507174944 | 69 | 130 | 1.0 | 4.0 | 0.00 | 0.00 | 1.09 | 84 | 1013.6 |
| 20260507174445 | 69 | 0 | 0.0 | 3.0 | 0.00 | 0.00 | 1.09 | 84 | 1013.5 |
| 20260507173938 | 69 | 0 | 0.0 | 4.0 | 0.00 | 0.00 | 1.09 | 83 | 1013.6 |
| 20260507173440 | 69 | 168 | 2.0 | 4.0 | 0.00 | 0.00 | 1.09 | 83 | 1013.6 |
| 20260507172943 | 70 | 184 | 1.0 | 3.0 | 0.00 | 0.00 | 1.09 | 83 | 1013.6 |
| 20260507172438 | 70 | 0 | 0.0 | 3.0 | 0.00 | 0.00 | 1.09 | 84 | 1013.5 |
| 20260507171941 | 70 | 150 | 1.0 | 4.0 | 0.00 | 0.00 | 1.09 | 85 | 1013.4 |
| 20260507171441 | 69 | 115 | 2.0 | 4.0 | 0.00 | 0.00 | 1.09 | 84 | 1013.3 |
| 20260507170937 | 69 | 179 | 1.0 | 4.0 | 0.00 | 0.00 | 1.09 | 86 | 1013.3 |
| 20260507170442 | 69 | 200 | 1.0 | 4.0 | 0.00 | 0.00 | 1.09 | 87 | 1013.3 |
| 20260507165945 | 69 | 143 | 1.0 | 3.0 | 0.00 | 0.00 | 1.09 | 88 | 1013.3 |
| 20260507165442 | 68 | 167 | 2.0 | 4.0 | 0.00 | 0.00 | 1.09 | 88 | 1013.4 |
| 20260507164936 | 69 | 156 | 2.0 | 4.0 | 0.00 | 0.00 | 1.09 | 87 | 1013.3 |
| 20260507164437 | 69 | 0 | 0.0 | 3.0 | 0.00 | 0.00 | 1.09 | 90 | 1013.4 |
| 20260507163936 | 68 | 143 | 2.0 | 3.0 | 0.00 | 0.00 | 1.09 | 91 | 1013.3 |
| 20260507163438 | 68 | 0 | 0.0 | 2.0 | 0.00 | 0.00 | 1.09 | 92 | 1013.6 |
| 20260507162942 | 67 | 0 | 0.0 | 2.0 | 0.00 | 0.00 | 1.09 | 91 | 1013.4 |
| 20260507162441 | 68 | 0 | 0.0 | 1.0 | 0.00 | 0.00 | 1.09 | 91 | 1013.5 |
| 20260507161937 | 67 | 177 | 1.0 | 2.0 | 0.00 | 0.00 | 1.09 | 92 | 1013.5 |
| 20260507161436 | 68 | 0 | 0.0 | 2.0 | 0.00 | 0.00 | 1.09 | 94 | 1013.5 |
| 20260507160937 | 67 | 176 | 0.0 | 6.0 | 0.00 | 0.00 | 1.09 | 94 | 1013.3 |
| 20260507160442 | 67 | 0 | 0.0 | 6.0 | 0.00 | 0.00 | 1.09 | 94 | 1013.3 |
| 20260507155936 | 67 | 186 | 0.0 | 6.0 | 0.00 | 0.00 | 1.09 | 95 | 1013.4 |
| 20260507155438 | 67 | 173 | 1.0 | 2.0 | 0.00 | 0.00 | 1.09 | 96 | 1013.1 |
| 20260507154940 | 67 | 232 | 1.0 | 1.0 | 0.00 | 0.00 | 1.09 | 96 | 1012.9 |
| 20260507154440 | 66 | 189 | 0.0 | 3.0 | 0.00 | 0.00 | 1.09 | 96 | 1013.0 |
| 20260507153937 | 66 | 0 | 0.0 | 4.0 | 0.00 | 0.00 | 1.09 | 96 | 1013.1 |
| 20260507153436 | 66 | 191 | 0.0 | 4.0 | 0.00 | 0.00 | 1.09 | 96 | 1013.1 |
| 20260507152937 | 66 | 0 | 0.0 | 1.0 | 0.00 | 0.00 | 1.09 | 96 | 1013.0 |
| 20260507152438 | 66 | 0 | 0.0 | 2.0 | 0.00 | 0.00 | 1.09 | 96 | 1012.8 |
| 20260507151937 | 65 | 206 | 1.0 | 2.0 | 0.00 | 0.00 | 1.09 | 96 | 1012.8 |
| 20260507151441 | 65 | 206 | 1.0 | 2.0 | 0.00 | 0.00 | 1.09 | 96 | 1013.1 |
| 20260507150943 | 66 | 0 | 0.0 | 1.0 | 0.00 | 0.00 | 1.09 | 97 | 1013.0 |
| 20260507150438 | 65 | 0 | 0.0 | 1.0 | 0.00 | 0.00 | 1.09 | 96 | 1013.0 |
| 20260507145938 | 65 | 0 | 0.0 | 1.0 | 0.00 | 0.00 | 1.09 | 96 | 1013.3 |
| 20260507145441 | 65 | 0 | 0.0 | 2.0 | 0.00 | 0.00 | 1.09 | 96 | 1013.3 |
| 20260507144937 | 65 | 0 | 0.0 | 2.0 | 0.00 | 0.00 | 1.09 | 97 | 1013.3 |
| 20260507144439 | 64 | 0 | 0.0 | 2.0 | 0.00 | 0.00 | 1.09 | 97 | 1013.4 |
| 20260507143942 | 64 | 0 | 0.0 | 2.0 | 0.00 | 0.00 | 1.09 | 96 | 1013.0 |
| 20260507143440 | 64 | 0 | 0.0 | 2.0 | 0.00 | 0.00 | 1.09 | 96 | 1013.1 |
| 20260507142938 | 64 | 0 | 0.0 | 4.0 | 0.00 | 0.00 | 1.09 | 97 | 1013.2 |
| 20260507142443 | 64 | 0 | 0.0 | 4.0 | 0.00 | 0.00 | 1.09 | 97 | 1013.4 |
| 20260507141939 | 64 | 198 | 1.0 | 1.0 | 0.00 | 0.00 | 1.09 | 97 | 1013.4 |
| 20260507141443 | 64 | 0 | 0.0 | 1.0 | 0.00 | 0.00 | 1.09 | 97 | 1013.3 |
| 20260507140941 | 64 | 0 | 0.0 | 1.0 | 0.00 | 0.00 | 1.09 | 97 | 1013.0 |
| 20260507140438 | 64 | 0 | 0.0 | 2.0 | 0.00 | 0.00 | 1.09 | 97 | 1013.1 |
| 20260507135935 | 64 | 0 | 0.0 | 2.0 | 0.00 | 0.00 | 1.09 | 97 | 1012.8 |
| 20260507135440 | 64 | 215 | 1.0 | 2.0 | 0.00 | 0.00 | 1.08 | 97 | 1012.9 |
| 20260507134942 | 64 | 0 | 0.0 | 1.0 | 0.00 | 0.00 | 1.08 | 97 | 1013.4 |
| 20260507134443 | 64 | 0 | 0.0 | 1.0 | 0.00 | 0.00 | 1.08 | 97 | 1013.4 |
| 20260507133939 | 63 | 227 | 0.0 | 1.0 | 0.00 | 0.00 | 1.07 | 97 | 1013.1 |
| 20260507133437 | 63 | 228 | 1.0 | 1.0 | 0.00 | 0.00 | 1.03 | 97 | 1012.8 |
| 20260507132939 | 63 | 0 | 0.0 | 2.0 | 0.00 | 0.00 | 1.00 | 96 | 1012.2 |
| 20260507132438 | 63 | 0 | 0.0 | 2.0 | 0.00 | 0.00 | 0.99 | 96 | 1012.2 |
| 20260507131937 | 63 | 0 | 0.0 | 0.0 | 0.00 | 0.00 | 0.99 | 97 | 1012.2 |
| 20260507131439 | 63 | 0 | 0.0 | 1.0 | 0.00 | 0.00 | 0.99 | 97 | 1012.3 |
| 20260507130939 | 63 | 0 | 0.0 | 2.0 | 0.00 | 0.00 | 0.99 | 96 | 1012.3 |
| 20260507130440 | 63 | 243 | 1.0 | 2.0 | 0.00 | 0.00 | 0.99 | 97 | 1012.3 |
| 20260507125943 | 63 | 243 | 1.0 | 2.0 | 0.00 | 0.00 | 0.99 | 97 | 1012.5 |
| 20260507125442 | 63 | 236 | 0.0 | 1.0 | 0.00 | 0.00 | 0.99 | 97 | 1012.7 |
| 20260507124940 | 63 | 0 | 0.0 | 3.0 | 0.00 | 0.00 | 0.98 | 97 | 1012.6 |
| 20260507124438 | 63 | 0 | 0.0 | 3.0 | 0.00 | 0.00 | 0.97 | 96 | 1012.6 |
| 20260507123936 | 63 | 236 | 1.0 | 4.0 | 0.00 | 0.00 | 0.94 | 96 | 1012.8 |
| 20260507123441 | 63 | 0 | 0.0 | 4.0 | 0.00 | 0.00 | 0.87 | 96 | 1013.2 |
| 20260507122939 | 62 | 0 | 0.0 | 5.0 | 0.00 | 0.00 | 0.84 | 96 | 1012.7 |
| 20260507122438 | 62 | 0 | 0.0 | 5.0 | 0.00 | 0.00 | 0.83 | 96 | 1012.7 |
| 20260507121938 | 62 | 201 | 1.0 | 4.0 | 0.00 | 0.00 | 0.82 | 96 | 1012.7 |
| 20260507121441 | 62 | 193 | 1.0 | 4.0 | 0.00 | 0.00 | 0.79 | 96 | 1012.8 |
| 20260507120937 | 62 | 200 | 2.0 | 4.0 | 0.00 | 0.00 | 0.79 | 96 | 1012.7 |
| 20260507120440 | 62 | 201 | 4.0 | 3.0 | 0.00 | 0.00 | 0.78 | 96 | 1012.3 |
| 20260507115943 | 62 | 0 | 0.0 | 3.0 | 0.00 | 0.00 | 0.78 | 96 | 1012.0 |
| 20260507115440 | 62 | 189 | 2.0 | 3.0 | 0.00 | 0.00 | 0.77 | 96 | 1012.0 |
| 20260507114937 | 62 | 207 | 0.0 | 3.0 | 0.00 | 0.00 | 0.76 | 96 | 1011.8 |
| 20260507114442 | 62 | 229 | 2.0 | 6.0 | 0.00 | 0.00 | 0.76 | 96 | 1011.6 |
| 20260507113943 | 62 | 204 | 1.0 | 7.0 | 0.00 | 0.00 | 0.75 | 96 | 1011.5 |
| 20260507113437 | 62 | 181 | 2.0 | 8.0 | 0.00 | 0.00 | 0.74 | 96 | 1011.5 |
| 20260507112938 | 62 | 0 | 0.0 | 8.0 | 0.00 | 0.00 | 0.73 | 96 | 1011.5 |
| 20260507112444 | 63 | 182 | 4.0 | 7.0 | 0.00 | 0.00 | 0.71 | 96 | 1011.6 |
| 20260507111940 | 63 | 210 | 3.0 | 6.0 | 0.00 | 0.00 | 0.68 | 96 | 1011.7 |
| 20260507111439 | 63 | 209 | 4.0 | 5.0 | 0.00 | 0.00 | 0.66 | 96 | 1011.6 |
| 20260507110941 | 63 | 186 | 1.0 | 3.0 | 0.00 | 0.00 | 0.65 | 96 | 1011.5 |
| 20260507110440 | 63 | 207 | 2.0 | 1.0 | 0.00 | 0.00 | 0.65 | 96 | 1011.1 |
| 20260507105937 | 63 | 0 | 0.0 | 1.0 | 0.00 | 0.00 | 0.65 | 96 | 1010.7 |
| 20260507105443 | 63 | 0 | 0.0 | 1.0 | 0.00 | 0.00 | 0.65 | 96 | 1010.6 |
| 20260507104943 | 63 | 200 | 0.0 | 1.0 | 0.00 | 0.00 | 0.65 | 96 | 1010.7 |
| 20260507104443 | 63 | 0 | 0.0 | 1.0 | 0.00 | 0.00 | 0.64 | 96 | 1010.8 |
| 20260507103943 | 63 | 0 | 0.0 | 1.0 | 0.00 | 0.00 | 0.64 | 96 | 1010.9 |
| 20260507103438 | 63 | 0 | 0.0 | 1.0 | 0.00 | 0.00 | 0.62 | 96 | 1011.1 |
| 20260507102937 | 63 | 0 | 0.0 | 2.0 | 0.00 | 0.00 | 0.60 | 96 | 1011.1 |
| 20260507102438 | 63 | 0 | 0.0 | 3.0 | 0.00 | 0.00 | 0.58 | 96 | 1011.2 |
| 20260507101938 | 63 | 194 | 0.0 | 3.0 | 0.00 | 0.00 | 0.58 | 96 | 1011.2 |
| 20260507101442 | 63 | 0 | 0.0 | 3.0 | 0.00 | 0.00 | 0.56 | 96 | 1011.2 |
| 20260507100938 | 63 | 0 | 0.0 | 3.0 | 0.00 | 0.00 | 0.56 | 96 | 1011.1 |
| 20260507100439 | 63 | 227 | 2.0 | 2.0 | 0.00 | 0.00 | 0.56 | 96 | 1011.0 |
| 20260507095941 | 63 | 227 | 1.0 | 3.0 | 0.00 | 0.00 | 0.56 | 96 | 1011.0 |
| 20260507095441 | 63 | 233 | 1.0 | 3.0 | 0.00 | 0.00 | 0.56 | 96 | 1011.2 |
| 20260507094941 | 63 | 238 | 2.0 | 3.0 | 0.00 | 0.00 | 0.56 | 96 | 1011.3 |
| 20260507094437 | 63 | 0 | 0.0 | 2.0 | 0.00 | 0.00 | 0.55 | 96 | 1011.4 |
| 20260507093941 | 63 | 0 | 0.0 | 2.0 | 0.00 | 0.00 | 0.54 | 96 | 1011.6 |
| 20260507093440 | 63 | 0 | 0.0 | 2.0 | 0.00 | 0.00 | 0.54 | 96 | 1011.8 |
| 20260507092935 | 63 | 207 | 0.0 | 3.0 | 0.00 | 0.00 | 0.54 | 96 | 1011.9 |
| 20260507092441 | 63 | 0 | 0.0 | 3.0 | 0.00 | 0.00 | 0.54 | 96 | 1011.9 |
| 20260507091942 | 63 | 243 | 1.0 | 3.0 | 0.00 | 0.00 | 0.54 | 96 | 1011.7 |
| 20260507091436 | 63 | 202 | 1.0 | 4.0 | 0.00 | 0.00 | 0.54 | 96 | 1011.6 |
| 20260507090943 | 63 | 0 | 0.0 | 4.0 | 0.00 | 0.00 | 0.54 | 96 | 1011.6 |
| 20260507090441 | 63 | 229 | 1.0 | 1.0 | 0.00 | 0.00 | 0.54 | 96 | 1012.0 |
| 20260507085936 | 63 | 0 | 0.0 | 2.0 | 0.00 | 0.00 | 0.54 | 96 | 1012.3 |
| 20260507085435 | 63 | 221 | 1.0 | 2.0 | 0.00 | 0.00 | 0.54 | 96 | 1012.4 |
| 20260507084938 | 63 | 227 | 1.0 | 1.0 | 0.00 | 0.00 | 0.54 | 96 | 1012.2 |
| 20260507084437 | 63 | 0 | 0.0 | 1.0 | 0.00 | 0.00 | 0.53 | 96 | 1012.3 |
| 20260507083939 | 63 | 0 | 0.0 | 2.0 | 0.00 | 0.00 | 0.53 | 96 | 1012.5 |
| 20260507083439 | 63 | 224 | 1.0 | 2.0 | 0.00 | 0.00 | 0.53 | 96 | 1012.3 |
| 20260507082939 | 63 | 223 | 1.0 | 2.0 | 0.00 | 0.00 | 0.53 | 96 | 1012.4 |
| 20260507082439 | 63 | 0 | 0.0 | 2.0 | 0.00 | 0.00 | 0.53 | 96 | 1012.6 |
| 20260507081937 | 63 | 227 | 2.0 | 2.0 | 0.00 | 0.00 | 0.53 | 96 | 1012.3 |
| 20260507081444 | 63 | 49 | 0.0 | 2.0 | 0.00 | 0.00 | 0.53 | 96 | 1012.3 |
| 20260507080940 | 63 | 0 | 0.0 | 2.0 | 0.00 | 0.00 | 0.53 | 96 | 1012.5 |
| 20260507080443 | 63 | 0 | 0.0 | 2.0 | 0.00 | 0.00 | 0.53 | 96 | 1012.5 |
| 20260507075938 | 63 | 0 | 0.0 | 3.0 | 0.00 | 0.00 | 0.53 | 96 | 1012.6 |
| 20260507075440 | 63 | 216 | 0.0 | 3.0 | 0.00 | 0.00 | 0.53 | 96 | 1012.8 |
| 20260507074939 | 63 | 181 | 0.0 | 4.0 | 0.00 | 0.00 | 0.53 | 96 | 1012.9 |
| 20260507074444 | 63 | 244 | 1.0 | 4.0 | 0.00 | 0.00 | 0.53 | 96 | 1013.1 |
| 20260507073937 | 63 | 266 | 4.0 | 3.0 | 0.00 | 0.00 | 0.53 | 96 | 1013.1 |
| 20260507073437 | 63 | 251 | 1.0 | 3.0 | 0.00 | 0.00 | 0.53 | 96 | 1013.1 |
| 20260507072939 | 63 | 193 | 1.0 | 2.0 | 0.00 | 0.00 | 0.53 | 96 | 1013.3 |
| 20260507072435 | 63 | 250 | 1.0 | 3.0 | 0.00 | 0.00 | 0.53 | 96 | 1013.1 |
| 20260507071939 | 63 | 0 | 0.0 | 3.0 | 0.00 | 0.00 | 0.53 | 96 | 1013.0 |
| 20260507071435 | 63 | 0 | 0.0 | 3.0 | 0.00 | 0.00 | 0.53 | 96 | 1013.0 |
| 20260507070941 | 63 | 0 | 0.0 | 3.0 | 0.00 | 0.00 | 0.53 | 96 | 1012.9 |
| 20260507070443 | 63 | 262 | 2.0 | 3.0 | 0.00 | 0.00 | 0.53 | 96 | 1013.0 |
| 20260507065939 | 63 | 212 | 0.0 | 3.0 | 0.00 | 0.00 | 0.53 | 96 | 1012.8 |
| 20260507065437 | 63 | 212 | 1.0 | 3.0 | 0.00 | 0.00 | 0.52 | 96 | 1013.1 |
| 20260507064943 | 63 | 250 | 1.0 | 3.0 | 0.00 | 0.00 | 0.52 | 96 | 1012.3 |
| 20260507064439 | 63 | 180 | 0.0 | 3.0 | 0.00 | 0.00 | 0.52 | 96 | 1013.1 |
| 20260507063942 | 63 | 231 | 1.0 | 2.0 | 0.00 | 0.00 | 0.52 | 96 | 1013.3 |
| 20260507063437 | 63 | 0 | 0.0 | 1.0 | 0.00 | 0.00 | 0.52 | 96 | 1013.4 |
| 20260507062940 | 63 | 0 | 0.0 | 1.0 | 0.00 | 0.00 | 0.51 | 96 | 1013.5 |
| 20260507062436 | 63 | 0 | 0.0 | 1.0 | 0.00 | 0.00 | 0.50 | 96 | 1013.5 |
| 20260507061944 | 63 | 0 | 0.0 | 0.0 | 0.00 | 0.00 | 0.49 | 96 | 1013.8 |
| 20260507061439 | 63 | 0 | 0.0 | 4.0 | 0.00 | 0.00 | 0.48 | 96 | 1014.0 |
| 20260507060938 | 63 | 147 | 0.0 | 4.0 | 0.00 | 0.00 | 0.48 | 96 | 1014.0 |
| 20260507060443 | 63 | 246 | 2.0 | 4.0 | 0.00 | 0.00 | 0.47 | 96 | 1013.6 |
| 20260507055940 | 63 | 0 | 0.0 | 4.0 | 0.00 | 0.00 | 0.46 | 95 | 1013.6 |
| 20260507055441 | 63 | 0 | 0.0 | 4.0 | 0.00 | 0.00 | 0.45 | 95 | 1013.7 |
| 20260507054940 | 63 | 255 | 3.0 | 4.0 | 0.00 | 0.00 | 0.42 | 96 | 1014.0 |
| 20260507054443 | 63 | 0 | 0.0 | 2.0 | 0.00 | 0.00 | 0.39 | 95 | 1014.1 |
| 20260507053941 | 63 | 194 | 1.0 | 3.0 | 0.00 | 0.00 | 0.39 | 95 | 1014.2 |
| 20260507053440 | 63 | 0 | 0.0 | 3.0 | 0.00 | 0.00 | 0.39 | 96 | 1014.1 |
| 20260507052941 | 63 | 0 | 0.0 | 2.0 | 0.00 | 0.00 | 0.39 | 95 | 1014.3 |
| 20260507052439 | 63 | 179 | 0.0 | 2.0 | 0.00 | 0.00 | 0.38 | 95 | 1014.4 |
| 20260507051941 | 64 | 0 | 0.0 | 3.0 | 0.00 | 0.00 | 0.38 | 95 | 1014.5 |
| 20260507051443 | 64 | 271 | 1.0 | 3.0 | 0.00 | 0.00 | 0.36 | 95 | 1014.5 |
| 20260507050940 | 64 | 240 | 0.0 | 1.0 | 0.00 | 0.00 | 0.30 | 95 | 1014.9 |
| 20260507050439 | 64 | 0 | 0.0 | 1.0 | 0.00 | 0.00 | 0.22 | 95 | 1015.0 |
| 20260507045937 | 64 | 0 | 0.0 | 1.0 | 0.00 | 0.00 | 0.20 | 95 | 1014.7 |
| 20260507045513 | 64 | 0 | 0.0 | 0.0 | 0.00 | 0.00 | 0.15 | 95 | 1014.8 |
| 20260507044934 | 64 | 0 | 0.0 | 1.0 | 0.00 | 0.00 | 0.12 | 95 | 1014.8 |
| 20260507044438 | 64 | 0 | 0.0 | 1.0 | 0.00 | 0.00 | 0.07 | 95 | 1014.4 |
| 20260507043942 | 64 | 0 | 0.0 | 1.0 | 0.00 | 0.00 | 0.05 | 95 | 1014.7 |
| 20260507043435 | 64 | 0 | 0.0 | 3.0 | 0.00 | 0.00 | 0.03 | 95 | 1014.6 |
| 20260507042935 | 64 | 0 | 0.0 | 3.0 | 0.00 | 0.00 | 0.02 | 95 | 1014.5 |
| 20260507042440 | 64 | 0 | 0.0 | 3.0 | 0.00 | 0.00 | 0.01 | 95 | 1014.4 |
| 20260507041941 | 64 | 215 | 2.0 | 2.0 | 0.00 | 0.00 | 0.01 | 95 | 1014.5 |
| 20260507041438 | 64 | 207 | 1.0 | 2.0 | 0.00 | 0.00 | 0.01 | 95 | 1014.5 |
| 20260507040938 | 64 | 0 | 0.0 | 2.0 | 0.00 | 0.00 | 0.00 | 95 | 1014.5 |
| 20260507040437 | 64 | 0 | 0.0 | 3.0 | 0.00 | 0.00 | 0.00 | 95 | 1014.9 |
| 20260507035939 | 64 | 0 | 0.0 | 3.0 | 0.00 | 0.00 | 1.34 | 95 | 1014.9 |
| 20260507035439 | 64 | 229 | 1.0 | 2.0 | 0.00 | 0.00 | 1.34 | 95 | 1014.9 |
| 20260507034940 | 64 | 0 | 0.0 | 2.0 | 0.00 | 0.00 | 1.33 | 95 | 1015.4 |
| 20260507034437 | 64 | 0 | 0.0 | 2.0 | 0.00 | 0.00 | 1.32 | 95 | 1015.2 |
| 20260507033940 | 64 | 0 | 0.0 | 2.0 | 0.00 | 0.00 | 1.30 | 95 | 1014.9 |
| 20260507033443 | 64 | 173 | 1.0 | 2.0 | 0.00 | 0.00 | 1.23 | 95 | 1015.3 |
| 20260507032941 | 65 | 190 | 0.0 | 6.0 | 0.00 | 0.00 | 1.18 | 95 | 1015.2 |
| 20260507032441 | 65 | 193 | 1.0 | 6.0 | 0.00 | 0.00 | 1.17 | 94 | 1014.9 |
| 20260507031942 | 65 | 0 | 0.0 | 4.0 | 0.00 | 0.00 | 1.14 | 94 | 1014.8 |
| 20260507031442 | 65 | 0 | 0.0 | 4.0 | 0.00 | 0.00 | 1.09 | 95 | 1014.9 |
| 20260507030936 | 65 | 0 | 0.0 | 4.0 | 0.00 | 0.00 | 1.01 | 94 | 1015.0 |
| 20260507030439 | 65 | 235 | 2.0 | 3.0 | 0.00 | 0.00 | 1.00 | 94 | 1014.9 |
| 20260507025937 | 65 | 0 | 0.0 | 1.0 | 0.00 | 0.00 | 0.93 | 94 | 1015.4 |
| 20260507025438 | 66 | 190 | 0.0 | 3.0 | 0.00 | 0.00 | 0.75 | 94 | 1015.7 |